Location: Kernascl�den
(48.0062°N, 3.3198°W)
Time: 22:55:40
(UTC+00:00)

Cosmos 2344 - Pass Details

Date: 21 January 2021
Orbit: 1243 x 2999 km, 63.3° (Epoch: 04 March)

Event Time Altitude Azimuth Distance (km) Brightness Sun altitude
Rises 18:30:16 0° 315° (NW) 4,420 6.9 -15.4°
Reaches altitude 10° 18:32:57 10° 320° (NW) 3,566 6.3 -15.9°
Maximum altitude 18:41:36 55° 38° (NE) 2,036 4.3 -17.3°
Enters shadow 18:50:59 17° 111° (ESE) 4,087 5.7 -18.8°
